Home   Weather   Gatineau   Past weeks
Flag for Canada

Past Weather in Gatineau, Quebec, Canada — Yesterday and Last 2 Weeks

Now
45 °F

Partly sunny.


Feels Like: 40 °F
Forecast: N/A
Wind: 8 mph from Northeast

Location: Ottawa Int'L. Ont.

Current Time: Apr 1, 2020 at 5:35:27 pm

Latest Report: Apr 1, 2020 at 5:00 pm


Visibility: 15 mi

Pressure: 29.93 "Hg

Humidity: 42%

Dew Point: 23 °F

Location of GatineauLocation

Past Weather in Gatineau — Graph

°F

Gatineau Temperature Yesterday

Maximum temperature yesterday: 46 °F (at 3:00 pm)
Minimum temperature yesterday: 32 °F (at 6:00 am)
Average temperature yesterday: 37 °F

High & Low Weather Summary for the Past Weeks

 TemperatureHumidityPressure
High57 °F (Mar 20, 1:00 pm)100% (Mar 20, 4:24 am)30.80 "Hg (Mar 20, 4:24 am)
Low12 °F (Mar 21, 7:00 am)31% (Mar 27, 3:00 pm)29.39 "Hg (Mar 20, 2:20 pm)
Average35 °F74%30.10 "Hg
* Reported Mar 17 4:00 pm — Apr 1 4:00 pm, Gatineau. Weather by CustomWeather, © 2020

Note: Actual official high and low records may vary slightly from our data, if they occured in-between our weather recording intervals... More about our weather records

Gatineau Weather History for the Previous 24 Hours

Scroll right to see more
 ConditionsComfort  
Time TempWeatherWind HumidityBarometerVisibility
4:00 pm
Wed, Apr 1
45 °FPartly sunny.8 mph42%29.93 "Hg15 mi
3:00 pm43 °FPartly sunny.7 mph49%29.94 "Hg15 mi
2:00 pm43 °FPartly sunny.8 mph49%29.95 "Hg15 mi
1:00 pm41 °FPartly sunny.7 mph53%29.96 "Hg15 mi
12:00 pm41 °FScattered clouds.9 mph57%29.98 "Hg15 mi
11:00 am39 °FScattered clouds.14 mph56%29.98 "Hg15 mi
10:00 am37 °FPassing clouds.13 mph60%29.99 "Hg15 mi
9:00 am36 °FPassing clouds.13 mph65%30.01 "Hg15 mi
8:00 am32 °FPassing clouds.9 mph69%30.00 "Hg15 mi
7:00 am28 °FPassing clouds.8 mph74%29.99 "Hg15 mi
6:00 am28 °FPassing clouds.9 mph74%29.98 "Hg15 mi
5:00 am28 °FClear.8 mph74%29.99 "Hg15 mi
4:00 am28 °FClear.7 mph74%29.99 "Hg15 mi
3:00 am30 °FPassing clouds.10 mph69%30.00 "Hg15 mi
2:00 am30 °FPassing clouds.8 mph64%30.03 "Hg15 mi
1:00 am34 °FPassing clouds.10 mph60%30.04 "Hg15 mi
12:00 am30 °FPassing clouds.7 mph64%30.05 "Hg15 mi
11:00 pm
Tue, Mar 31
32 °FClear.6 mph55%30.06 "Hg15 mi
10:00 pm36 °FClear.5 mph48%30.06 "Hg15 mi
9:00 pm36 °FClear.3 mph48%30.07 "Hg15 mi
8:00 pm37 °FPassing clouds.7 mph41%30.07 "Hg15 mi
7:00 pm41 °FPassing clouds.10 mph36%30.08 "Hg15 mi
6:00 pm45 °FPassing clouds.14 mph31%30.08 "Hg15 mi
5:00 pm46 °FPassing clouds.14 mph34%30.07 "Hg15 mi
Weather by CustomWeather, © 2020

See weather overview

Advertising